"Pseudo-MPEC" for P11Jzan

Created 2023 Sep 19 16:22:35 UT using Find_Orb

Click here for an explanation of pseudo-MPECs

 
 Astrometry: 
     P11Jzan  C2023 09 11F-PDvcXTbOvksJmF8uFAP)8d09e6]\%h'VQ909B,_0RbHM.iW4MIF51
     P11Jzan  C2023 09 11S7cM[!0:ikpt*4'fsCv%+E,mh=\og5,*-Z?.DYR5*Lsd`Q3CMl(LF51
     P11Jzan  C2023 09 11xPof]UKAb_`p)?Hr#Okh5Astrometryls#ioLMnvdB:!w?B_$(/aF51
     P11Jzan  C2023 09 11!XY%aKGvq@S:@IfGqBC5d86;WX\`0Credacted;;B#@)(AYSa3m\F51
     P11Jzan* C2023 09 1564)-V'Bu?X6vjk2P!VEC3@oa_H#Lo_b)Bo:#7iBI%s9p+CK;iH(/F51
     P11Jzan  C2023 09 15NwphyM:of#x/Ll2[/ga\[1g$7]G_eclickVh='0.J1u'd*T0prlYF51
     P11Jzan  C2023 09 159-;tr]hereS/@TI_e7FGsTK^OS3-3^Y%=L23G*JT:j.=)MT,sU%NF51
     P11Jzan  C2023 09 15=#3@7tSuSXljY'N)5BMw_WKm=DHvr)9PpYAk2xjbX4B9=%N_SLy0F52
     P11Jzan  C2023 09 15QlMOo#xRnvs9bi8for-+pA'08-8R`QJoCQy8T!jpS9FR/oDo7(%PF52
     P11Jzan KC2023 09 16iq()63S_V^^Il_mbl,cr9rA]hBR%$1/G)kPs$)X5A=83V+OI88uQH21
     P11Jzan KC2023 09 16d=h,9u2q,uiAnbyQu4Ll_H24K$'!/EwR1r(YmH4HeexplanationH21
     P11Jzan KC2023 09 164y`K,)dToRZs35(YS%1R)1v3eRyUlUx8D--vA0V.Cch.'@7[+g5rH21

Station data:
(F51) Pan-STARRS 1, Haleakala  (N20.707234 W156.255910)  US/Hawaii.
   Observers J. Bulger, T. Lowe, A. Schultz, M. Willman. Measurers K.
   Chambers, S. Chastel, T. de Boer, L. Denneau, J. Fairlamb, H. Flewelling,
   M. Huber, C.-C. Lin, E. Magnier, Y. Ramanjooloo, R. Wainscoat, R. Weryk.
   1.8-m Ritchey-Chrétien + CCD.
(F52) Pan-STARRS 2, Haleakala  (N20.707382 W156.255910)  US/Hawaii.
   Observers J. Bulger, T. Dukes, T. Lowe, A. Schultz, M. Willman. Measurers
   K. Chambers, S. Chastel, T. de Boer, L. Denneau, J. Fairlamb, H.
   Flewelling, M. Huber, C.-C. Lin, E. Magnier, Y. Ramanjooloo, R. Wainscoat,
   R. Weryk. 1.8-m Ritchey-Chrétien + CCD.
(H21) Astronomical Research Observatory, Westfield  (N39.483054 W87.968270)
   US/Illinois.  Observer R. Holmes. Measurers S. Foglia, L. Buzzi, T.
   Linder, R. Holmes. 0.76-m f/3.0 astrograph + CCD0.81-m f/4.0 astrograph +
   CCD0.61-m f/4.5 astrograph + CCD0.40-m f/5.32 astrograph + CCD.

Orbital elements:  P11Jzan
   Perihelion 2024 May 30.42850 +/- 2.93 TT = 10:17:02 (JD 2460460.92850)
Epoch 2023 Sep 16.0 TT = JDT 2460203.5   Earth MOID: 0.7174      AutoNEOCP
M 255.73601130 +/- 1.6              (J2000 ecliptic)
n   0.40502116 +/- 0.00391          Peri.  274.82297 +/- 0.9
a   1.80919025 +/- 0.0116           Node   192.15678 +/- 0.31
e   0.1227992 +/- 0.00609           Incl.   22.58270 +/- 0.43
P   2.43/888.83d           H 20.60  G  0.15   U  9.0
q 1.58702299 +/- 0.00352    Q 2.03135751 +/- 0.0238
From 12 observations 2023 Sept. 11-16; mean residual 0".14
Residuals in arcseconds: 
230911 F51  .06+  .11-    230915 F51  .09-  .02+    230915 F52  .23+  .16-    
230911 F51  .05-  .06-    230915 F51  .04-  .12+    230916 H21  .24+  .12-    
230911 F51  .13-  .11-    230915 F51  .08+  .07+    230916 H21  .09+  .06+    
230911 F51  .12+  .28+    230915 F52  .20-  .04-    230916 H21  .24-  .16+    

Ephemerides (geocentric):
Date (UTC) HH   RA             Dec           delta  r     elong  mag " sig PA
---- --------  ------------   ------------  ------ ------ -----  --- --------
2023 09 19 16  22 50 45.771   +10 49 08.63  .90300 1.8830 161.6 22.4 2.93 100
2023 09 19 17  22 50 43.615   +10 48 06.65  .90298 1.8830 161.5 22.4 2.98 100
2023 09 19 18  22 50 41.459   +10 47 04.65  .90297 1.8829 161.5 22.4 3.02 100
2023 09 19 19  22 50 39.306   +10 46 02.63  .90295 1.8829 161.5 22.4 3.07 100
2023 09 19 20  22 50 37.155   +10 45 00.58  .90294 1.8828 161.5 22.4 3.12 100
2023 09 19 21  22 50 35.005   +10 43 58.51  .90292 1.8827 161.5 22.4 3.17 100
2023 09 19 22  22 50 32.857   +10 42 56.42  .90291 1.8827 161.5 22.4 3.22 100
2023 09 19 23  22 50 30.711   +10 41 54.31  .90289 1.8826 161.5 22.4 3.27  99
2023 09 20 00  22 50 28.567   +10 40 52.17  .90288 1.8826 161.5 22.4 3.32  99
2023 09 20 01  22 50 26.425   +10 39 50.01  .90287 1.8825 161.4 22.4 3.37  99
2023 09 20 02  22 50 24.285   +10 38 47.83  .90286 1.8825 161.4 22.4 3.42  99
2023 09 20 03  22 50 22.146   +10 37 45.62  .90285 1.8824 161.4 22.4 3.48  99
2023 09 20 04  22 50 20.009   +10 36 43.39  .90284 1.8823 161.4 22.4 3.53  99
2023 09 20 05  22 50 17.875   +10 35 41.14  .90283 1.8823 161.4 22.4 3.58  99
2023 09 20 06  22 50 15.742   +10 34 38.87  .90282 1.8822 161.4 22.4 3.63  99
2023 09 20 07  22 50 13.611   +10 33 36.58  .90281 1.8822 161.4 22.4 3.69  99
2023 09 20 08  22 50 11.482   +10 32 34.27  .90280 1.8821 161.3 22.4 3.74  99
2023 09 20 09  22 50 09.355   +10 31 31.93  .90279 1.8820 161.3 22.4 3.80  99
2023 09 20 10  22 50 07.229   +10 30 29.57  .90278 1.8820 161.3 22.4 3.85  99
2023 09 20 11  22 50 05.106   +10 29 27.19  .90277 1.8819 161.3 22.4 3.91  98
2023 09 20 12  22 50 02.985   +10 28 24.79  .90276 1.8819 161.3 22.4 3.96  98
2023 09 20 13  22 50 00.865   +10 27 22.37  .90276 1.8818 161.3 22.4 4.02  98
2023 09 20 14  22 49 58.748   +10 26 19.93  .90275 1.8817 161.3 22.4 4.07  98
2023 09 20 15  22 49 56.632   +10 25 17.47  .90274 1.8817 161.2 22.4 4.13  98
2023 09 20 16  22 49 54.519   +10 24 14.98  .90274 1.8816 161.2 22.4 4.19  98
2023 09 20 17  22 49 52.407   +10 23 12.48  .90273 1.8816 161.2 22.4 4.25  98
2023 09 20 18  22 49 50.297   +10 22 09.96  .90273 1.8815 161.2 22.4 4.30  98
2023 09 20 19  22 49 48.190   +10 21 07.41  .90273 1.8814 161.2 22.4 4.36  98
2023 09 20 20  22 49 46.084   +10 20 04.85  .90272 1.8814 161.2 22.4 4.42  98
2023 09 20 21  22 49 43.980   +10 19 02.26  .90272 1.8813 161.1 22.4 4.48  98
2023 09 20 22  22 49 41.879   +10 17 59.66  .90271 1.8813 161.1 22.4 4.54  97
2023 09 20 23  22 49 39.779   +10 16 57.03  .90271 1.8812 161.1 22.4 4.60  97
2023 09 21 00  22 49 37.681   +10 15 54.39  .90271 1.8811 161.1 22.4 4.66  97
2023 09 21 01  22 49 35.585   +10 14 51.72  .90271 1.8811 161.1 22.4 4.72  97
2023 09 21 02  22 49 33.492   +10 13 49.04  .90271 1.8810 161.1 22.4 4.78  97
2023 09 21 03  22 49 31.400   +10 12 46.34  .90271 1.8810 161.0 22.4 4.85  97
2023 09 21 04  22 49 29.311   +10 11 43.62  .90271 1.8809 161.0 22.4 4.91  97
2023 09 21 05  22 49 27.223   +10 10 40.87  .90271 1.8808 161.0 22.4 4.97  97
2023 09 21 06  22 49 25.138   +10 09 38.11  .90271 1.8808 161.0 22.4 5.03  97
2023 09 21 07  22 49 23.054   +10 08 35.34  .90271 1.8807 161.0 22.4 5.10  97
2023 09 21 08  22 49 20.973   +10 07 32.54  .90271 1.8807 161.0 22.4 5.16  97
2023 09 21 09  22 49 18.894   +10 06 29.72  .90271 1.8806 160.9 22.4 5.23  97
2023 09 21 10  22 49 16.816   +10 05 26.89  .90271 1.8805 160.9 22.4 5.29  96
2023 09 21 11  22 49 14.741   +10 04 24.04  .90272 1.8805 160.9 22.4 5.36  96
2023 09 21 12  22 49 12.668   +10 03 21.17  .90272 1.8804 160.9 22.4 5.42  96
2023 09 21 13  22 49 10.597   +10 02 18.28  .90272 1.8804 160.9 22.4 5.49  96
2023 09 21 14  22 49 08.529   +10 01 15.37  .90273 1.8803 160.8 22.4 5.55  96
2023 09 21 15  22 49 06.462   +10 00 12.45  .90273 1.8803 160.8 22.4 5.62  96